Temperature
23 23 24 23 20 18 20 21 23 23 24 25 25 25 23 23 22 22 22 22 21 21 20 20 20 20 20 20 21 21 21 20 20 20 20 20 19 19 19 19 19 19 19 19 19 19 19 19 19
23 24 24 23 19 19 20 21 23 23 25 25 25 24 23 22 22 22 22 21 21 21 20 20 20 20 20 20 20 21 20 20 20 20 20 19 19 19 19 19 19 19 19 19 19 19 19 18 18
23 23 24 19 18 19 22 22 23 24 26 25 25 24 23 22 22 22 22 21 21 20 20 20 20 20 20 20 20 20 20 20 20 20 20 19 19 19 19 19 19 19 18 18 18 18 18 18 18
23 23 22 18 20 19 21 22 23 23 25 26 25 23 22 22 23 23 22 21 21 20 20 20 20 20 20 20 20 20 20 20 20 20 19 19 19 19 19 19 19 18 18 18 18 18 18 18 18
22 23 19 18 19 20 21 23 24 23 24 25 24 22 22 22 22 22 22 21 21 20 20 20 20 20 20 20 20 20 20 20 20 19 19 19 19 19 19 19 19 18 18 18 18 18 18 18 18
22 19 18 17 19 20 22 24 24 24 24 24 23 21 21 22 22 22 22 21 21 21 20 20 19 20 20 20 20 20 20 19 19 19 19 19 19 19 19 19 18 18 18 18 18 18 18 18 18
20 16 17 18 19 20 22 24 24 24 23 24 23 21 20 21 22 22 22 21 21 20 20 19 19 19 19 20 20 20 19 19 19 19 19 19 19 19 19 18 18 18 18 18 18 18 18 18 18
20 15 17 17 19 20 22 24 24 24 24 24 24 21 20 21 21 21 21 21 20 20 20 19 19 19 19 19 19 19 19 19 19 19 19 19 19 19 18 18 18 18 17 17 17 18 18 18 17
19 14 15 17 18 20 22 23 24 25 25 24 24 24 23 22 21 21 21 20 20 19 19 19 19 19 19 19 19 19 19 19 19 19 19 19 19 18 18 18 18 17 17 17 17 17 17 17 17
18 13 15 17 19 20 21 22 23 24 23 24 24 23 23 22 21 21 20 20 20 20 19 19 20 19 19 19 19 19 19 19 19 19 19 19 18 18 18 18 17 17 17 17 17 17 17 17 17
16 15 16 18 20 21 21 22 23 23 22 24 24 23 22 21 21 21 21 21 21 20 20 20 20 20 19 19 19 19 19 19 19 19 19 18 18 18 18 18 17 17 17 17 17 17 17 17 17
15 16 17 19 21 21 21 22 23 23 24 26 25 24 23 21 20 21 21 21 21 21 20 20 20 20 20 20 20 19 19 19 19 19 19 18 18 18 18 18 17 17 17 17 17 17 17 17 17
16 17 19 20 21 21 21 21 22 23 25 25 25 23 23 22 21 21 21 21 21 21 21 21 20 20 20 20 20 19 19 19 19 19 19 18 18 18 18 17 17 17 17 17 17 17 17 17 17
17 18 19 20 20 21 21 21 21 24 26 25 24 22 22 21 21 20 21 21 21 21 21 21 21 20 20 20 20 20 19 19 19 19 19 18 18 18 18 17 17 17 17 17 17 17 17 17 17
18 18 18 18 19 20 20 21 21 25 24 24 23 22 21 21 20 21 21 21 22 22 22 21 21 21 20 20 20 20 19 19 19 19 18 18 18 18 18 17 17 17 17 17 17 17 17 17 17
17 18 18 19 19 20 20 21 22 24 23 23 22 22 21 21 21 22 22 22 22 22 22 22 21 21 21 20 20 20 19 19 19 19 18 18 18 18 17 17 17 17 16 16 16 16 16 17 16
16 17 18 19 20 20 20 21 21 23 23 22 22 22 22 22 22 22 22 22 22 22 22 22 22 22 21 21 20 20 19 19 19 18 18 18 18 18 17 17 17 16 16 16 16 16 16 16 16
17 18 18 19 19 20 20 20 20 22 22 22 22 22 22 22 22 22 22 22 22 22 22 22 22 22 21 21 20 19 19 19 18 18 18 18 18 17 17 17 16 16 16 16 16 16 15 15 15
18 18 18 18 19 20 19 19 18 19 20 20 21 21 22 22 23 22 22 22 22 22 22 22 22 22 21 21 20 20 19 19 18 18 18 18 17 17 17 17 16 16 16 16 15 15 15 15 14
17 18 18 18 19 20 19 18 17 17 17 18 19 20 21 21 21 22 22 22 22 22 22 22 22 21 21 21 20 20 19 19 18 18 18 18 17 17 17 17 16 16 16 15 15 15 14 14 14
17 17 18 19 18 19 19 18 17 17 16 16 17 18 19 19 20 20 21 21 22 21 21 22 21 21 21 21 20 19 19 18 18 18 17 17 17 17 17 16 16 16 15 15 15 14 14 14 13
16 18 18 19 18 17 19 17 17 16 16 16 15 15 16 17 17 18 19 19 20 20 21 21 21 21 20 20 20 20 19 19 18 18 17 16 16 16 16 16 15 15 14 14 14 14 13 13 13
17 18 18 18 18 17 17 17 16 16 16 16 15 15 15 15 16 16 17 17 18 19 19 20 20 19 19 19 19 19 19 18 18 17 16 16 15 15 15 15 14 14 14 14 13 13 13 13 12
18 18 17 15 15 17 17 16 16 16 16 16 15 14 14 14 15 15 16 17 17 18 18 19 19 18 18 18 18 18 18 18 17 16 16 15 14 14 14 14 13 13 13 13 13 12 12 12 12
17 16 15 16 15 16 16 16 16 16 15 15 14 13 14 14 14 15 15 16 16 17 17 17 17 17 17 17 17 17 17 17 16 16 15 14 14 13 13 13 13 12 12 12 12 11 11 11 11
16 16 15 16 16 15 16 16 15 15 14 14 13 13 13 13 14 14 14 14 15 15 16 16 16 16 16 16 16 16 16 15 15 15 14 13 13 13 12 12 12 11 11 11 11 10 10 10 10
16 15 15 14 16 15 15 16 15 15 14 13 13 12 12 13 13 13 13 14 14 14 15 15 15 15 15 15 15 15 14 14 14 13 13 13 12 12 11 11 11 10 10 9 9 9 9 9 8
16 14 13 14 15 15 15 15 15 15 14 13 12 12 12 12 12 13 13 13 13 13 14 14 14 14 14 14 14 14 13 13 13 13 12 12 11 10 10 9 9 9 8 8 8 8 8 7 7
16 15 13 12 13 14 14 14 15 14 14 13 12 11 11 11 11 12 12 12 12 13 13 13 13 13 13 13 12 12 12 12 12 11 10 10 9 9 8 8 8 8 7 7 7 7 6 6 6
15 14 13 14 13 13 13 14 13 13 13 12 11 11 11 11 11 11 11 11 11 11 12 12 12 11 11 11 11 11 11 10 10 9 9 8 8 8 7 7 7 7 6 6 6 6 6 5 5
Wind_Speed
8 1 4 3 5 5 3 5 2 5 5 3 1 3 6 5 5 4 3 13 18 17 20 22 22 23 23 24 24 25 25 25 25 24 23 22 21 20 19 18 18 18 17 17 17 16 16 15 15
3 1 4 5 5 1 6 4 2 4 4 2 2 3 3 0 2 6 7 12 19 18 19 20 22 23 24 24 24 24 24 24 23 23 22 21 20 19 18 17 16 16 16 16 15 14 14 14 14
2 3 5 5 3 5 4 2 3 8 6 1 2 3 1 2 5 7 8 16 17 16 18 21 23 22 23 23 23 23 23 23 22 22 21 20 19 17 16 15 15 14 14 14 13 13 12 12 12
2 5 5 4 7 7 5 3 6 9 7 2 3 3 2 1 6 7 15 18 18 14 18 21 22 22 22 22 22 22 22 22 21 20 19 18 17 16 15 14 13 13 12 12 11 11 10 10 9
4 5 3 2 8 6 4 4 4 6 5 3 3 4 1 4 8 15 18 19 18 14 15 20 22 21 21 22 21 21 21 20 20 19 18 17 16 15 13 12 11 11 11 10 9 9 9 8 8
5 5 4 7 9 6 3 3 2 4 5 3 3 4 1 3 12 15 16 15 15 15 14 18 21 22 21 21 21 20 20 19 19 18 17 16 15 13 12 11 10 9 9 8 7 6 6 6 6
5 5 8 9 8 7 5 3 2 3 5 3 5 5 1 4 8 13 12 12 11 11 11 13 17 20 20 20 20 19 19 18 18 17 16 15 13 12 11 9 8 7 7 6 5 4 4 4 4
5 5 6 7 7 8 3 2 2 2 5 1 6 7 6 6 9 11 11 10 10 9 9 9 13 15 15 17 18 18 18 18 17 16 15 14 12 11 10 8 7 6 5 5 4 3 2 2 2
5 3 6 8 8 6 1 0 2 3 3 2 4 6 7 14 14 13 12 9 10 11 8 8 9 11 13 14 16 17 17 17 16 15 15 13 10 9 8 7 7 6 5 4 3 2 2 1 2
5 4 8 6 5 4 2 2 3 4 5 3 0 4 13 18 17 17 17 16 15 14 12 8 9 10 12 13 13 13 14 14 14 14 13 11 9 8 7 7 7 6 5 4 2 2 1 1 2
6 8 6 7 7 5 4 4 4 3 7 8 7 11 19 19 17 17 17 17 18 15 13 11 10 10 11 8 11 10 11 12 12 13 13 11 9 7 5 4 5 5 3 1 1 1 0 2 3
5 7 6 6 5 4 5 4 4 7 11 9 9 17 23 22 21 19 18 17 14 14 14 12 11 9 10 9 9 10 9 10 10 12 13 11 7 6 5 4 4 3 2 1 0 1 1 2 4
6 7 7 9 9 6 6 7 6 9 13 8 8 17 23 22 18 15 13 13 13 15 14 13 12 12 9 7 8 9 9 10 11 11 12 12 8 6 5 5 5 4 3 2 1 0 1 1 1
6 8 9 9 8 6 8 7 5 12 8 5 11 17 18 18 17 14 13 14 14 15 14 12 12 11 9 8 7 7 9 10 11 11 12 13 11 8 6 5 5 5 4 3 2 2 2 3 3
3 5 7 7 7 7 5 6 8 10 4 7 11 13 14 14 15 16 17 15 15 15 14 13 13 11 11 9 8 8 9 10 9 10 13 14 13 11 8 5 4 5 5 5 5 5 5 4 4
2 1 4 6 3 4 8 6 8 4 7 8 9 11 13 13 16 15 15 14 14 13 14 14 15 14 12 10 7 7 9 10 9 11 12 14 14 13 9 6 5 6 7 6 4 4 4 4 4
4 1 3 6 2 2 5 6 7 2 8 8 9 10 12 12 12 13 15 15 15 15 14 14 13 14 13 10 7 6 7 8 9 11 11 13 14 13 10 7 6 8 7 5 5 3 3 4 5
3 2 3 5 4 1 2 6 8 4 7 9 9 9 11 13 13 11 12 12 12 12 13 13 12 11 11 9 6 5 4 4 5 6 8 11 11 13 11 7 8 9 6 5 5 5 4 4 4
2 2 5 7 5 3 4 5 7 4 3 6 7 8 10 11 7 6 7 9 10 10 11 13 14 12 10 8 8 6 6 4 3 3 7 9 10 11 10 7 7 7 6 6 7 5 5 3 2
3 4 6 7 4 2 4 5 6 6 3 0 3 4 5 4 3 3 4 5 8 10 10 10 12 13 12 10 7 4 4 3 3 2 3 6 8 9 9 8 6 6 7 8 7 5 4 2 2
4 4 5 6 7 5 3 6 7 7 8 10 8 7 5 3 2 2 2 2 2 4 7 8 10 11 11 10 7 6 5 4 3 4 3 4 8 9 9 9 7 6 7 7 6 6 6 4 2
5 7 7 4 3 5 3 2 5 6 10 11 11 11 11 9 8 7 6 5 3 1 1 4 7 9 9 10 10 10 8 6 5 4 4 5 8 9 10 10 9 7 6 6 5 3 4 5 4
8 5 3 3 2 2 2 3 3 4 6 9 11 12 12 11 11 11 10 7 5 4 3 2 5 7 8 9 10 9 6 5 5 6 7 6 6 7 9 10 9 7 6 7 6 5 5 4 4
5 4 5 5 4 1 3 4 2 4 4 6 10 11 12 12 12 12 11 10 9 7 6 5 5 6 7 8 9 9 10 9 9 7 7 6 5 5 8 10 9 8 7 8 8 7 8 7 7
5 5 4 3 3 3 2 5 3 6 7 8 9 10 11 12 12 13 13 12 11 10 8 6 6 6 6 8 8 8 8 9 10 8 7 7 6 5 7 9 9 9 10 11 11 9 10 9 10
6 9 7 5 4 2 4 4 4 7 9 10 10 10 12 13 13 13 13 12 12 11 10 8 8 8 8 8 8 8 8 7 7 8 8 8 7 7 8 11 11 12 12 12 12 10 10 10 10
6 5 7 6 3 3 3 4 4 7 9 9 9 10 11 11 12 12 12 12 12 12 12 11 11 11 11 11 11 10 10 10 11 11 11 10 9 9 10 12 12 12 12 12 11 9 9 9 9
4 7 6 6 5 2 2 2 1 5 7 7 7 7 8 9 11 11 12 12 12 12 13 13 13 13 13 13 11 11 12 13 13 13 13 12 11 11 11 12 12 12 12 12 10 9 8 9 8
4 5 6 5 5 6 4 0 3 5 8 8 7 6 7 9 10 10 11 11 12 13 14 14 14 15 14 14 14 15 14 14 14 14 14 13 12 12 13 12 13 12 11 10 9 8 7 8 7
4 4 5 5 3 4 5 2 3 7 9 9 8 7 7 8 9 11 11 12 13 13 14 14 14 14 14 14 15 16 16 16 16 15 14 14 14 13 13 13 13 12 11 9 9 8 7 6 6
Wind_Direction
305 108 119 77 47 40 287 270 270 342 327 312 269 145 151 159 178 197 119 137 136 143 152 152 151 146 140 134 131 129 128 128 128 128 129 129 129 128 126 124 121 119 117 115 115 116 116 116 116
301 132 77 60 79 344 280 266 335 323 301 324 29 55 68 89 79 115 130 141 139 143 149 152 151 147 142 138 135 133 133 132 132 132 132 131 131 130 128 127 124 122 120 119 119 120 120 120 121
300 70 87 79 141 198 240 259 315 308 296 273 62 55 69 193 142 147 150 142 138 143 148 154 152 148 144 142 140 138 137 137 136 136 136 135 134 133 132 131 129 126 124 122 122 123 122 122 124
68 55 62 102 227 227 221 285 316 320 318 287 123 90 45 31 154 151 142 142 140 144 150 156 154 151 147 145 144 143 142 141 140 140 140 139 139 139 137 137 135 131 128 126 126 126 124 124 127
59 89 103 219 242 244 228 255 280 301 299 299 136 138 352 7 116 136 144 147 147 147 151 157 156 154 152 150 149 148 147 146 145 144 144 145 145 144 144 144 142 139 135 132 131 130 127 126 130
59 90 154 230 247 249 235 228 280 292 289 286 131 128 321 104 134 146 149 149 150 150 151 158 160 159 157 155 154 153 152 150 149 149 150 151 151 152 153 153 152 147 140 136 135 133 126 126 133
124 142 194 217 246 258 239 201 204 290 299 268 141 132 278 151 156 146 140 136 139 146 149 155 162 164 163 160 159 158 157 156 155 156 157 159 161 162 163 163 162 155 148 145 144 143 134 131 141
130 137 198 214 228 254 193 180 195 266 285 268 134 154 204 180 149 132 124 126 135 145 152 153 158 160 161 163 164 163 163 162 162 163 166 169 171 172 175 175 176 173 168 164 163 167 155 151 173
88 107 210 212 208 235 144 84 294 264 261 249 179 179 177 143 142 136 133 136 151 159 160 156 152 154 157 162 169 169 170 170 170 173 176 176 177 182 186 189 195 198 197 193 189 199 196 197 232
110 183 226 224 215 240 315 268 280 307 299 279 132 123 137 145 157 158 161 165 170 174 175 166 159 157 158 167 167 167 170 173 174 176 179 177 179 186 190 201 212 219 222 223 222 227 231 218 245
169 201 230 245 248 261 280 268 227 230 266 236 212 164 152 160 170 173 176 177 179 177 177 175 168 163 163 162 160 162 165 170 174 176 177 175 176 182 189 203 228 243 245 230 29 37 314 227 232
191 241 234 254 247 238 237 244 238 218 240 237 206 166 162 172 180 183 183 184 178 176 183 178 174 169 169 163 164 165 165 171 175 178 176 172 169 179 192 204 222 234 231 176 31 4 319 241 232
223 257 255 250 263 252 245 238 240 253 256 256 184 166 174 179 183 186 185 184 180 183 185 181 178 177 173 164 166 172 175 180 180 178 181 180 178 186 199 214 221 223 213 191 183 121 64 68 142
236 238 259 268 258 237 226 251 213 258 257 204 169 172 176 180 181 182 184 187 188 188 187 181 182 180 174 174 174 176 182 182 180 184 186 187 188 191 197 211 215 212 200 186 166 147 115 88 97
266 266 284 257 237 237 192 261 229 245 193 176 174 173 173 179 183 191 192 191 190 188 185 182 184 180 180 182 181 179 183 183 187 191 192 193 195 196 195 197 201 200 181 158 140 120 103 93 91
335 300 284 281 239 218 156 236 259 231 170 179 180 176 178 185 192 194 193 191 188 184 185 187 189 184 185 186 181 180 182 185 193 194 196 198 198 196 189 189 194 184 162 150 138 125 103 89 93
16 317 266 299 315 155 168 233 276 202 181 189 188 185 185 191 197 196 196 193 189 186 184 186 186 183 186 183 177 178 179 188 194 192 195 198 196 191 185 185 180 166 151 146 144 124 117 113 106
256 272 306 295 304 359 216 250 278 259 198 204 199 191 191 196 203 195 193 191 186 183 183 184 184 180 175 174 169 166 163 181 186 185 193 190 187 184 178 172 165 156 144 141 135 121 101 108 111
223 283 293 277 279 302 287 290 302 307 213 219 210 201 202 205 202 185 182 181 180 183 186 184 182 176 171 176 181 183 184 176 175 172 180 178 173 174 167 161 156 153 148 146 137 118 107 88 93
232 283 293 296 314 280 303 333 349 23 18 298 198 203 205 191 172 172 171 171 184 187 188 188 184 178 180 185 178 167 144 145 145 137 141 151 155 158 158 152 152 146 137 138 139 130 119 91 57
240 227 253 281 331 357 14 360 18 27 40 44 49 49 50 82 82 71 89 146 168 179 191 190 186 186 183 167 142 122 113 116 138 145 131 116 129 137 139 139 138 142 142 147 144 143 138 137 81
258 235 226 265 345 313 37 1 357 22 46 46 44 45 43 41 46 43 38 31 22 347 190 179 179 180 174 165 164 165 177 178 167 146 133 119 118 122 124 128 131 129 124 129 130 130 132 135 136
221 237 220 252 204 297 348 127 324 14 46 47 47 46 44 43 47 45 39 34 32 28 42 120 150 158 162 164 167 168 161 145 130 127 125 112 102 107 116 121 120 114 110 111 107 104 103 108 126
199 63 45 47 83 315 285 133 16 16 35 56 51 46 43 43 45 44 40 38 37 39 47 66 110 130 145 148 152 159 156 146 139 140 136 123 109 95 94 98 100 101 101 100 99 96 93 91 94
120 100 34 10 33 248 342 95 75 49 60 70 63 51 43 42 44 43 38 37 36 39 45 60 90 100 111 122 129 137 140 140 143 143 131 122 109 95 94 95 94 95 97 97 97 93 88 89 91
171 146 159 185 199 266 29 92 89 77 76 75 68 59 50 44 43 44 39 37 37 39 45 59 76 80 86 96 98 101 106 111 112 109 111 108 102 97 96 94 94 94 95 96 94 93 92 91 92
141 171 163 132 141 85 74 104 112 100 82 71 62 54 50 47 46 45 43 42 41 42 43 53 68 71 72 81 86 86 88 95 99 97 96 96 97 97 93 93 91 87 87 88 88 90 91 92 92
125 135 101 114 136 131 88 99 99 139 116 95 75 60 52 49 47 45 45 45 45 46 47 51 60 67 69 73 79 84 86 89 92 93 93 92 90 90 89 87 87 84 82 83 84 87 89 92 90
56 75 94 99 129 138 139 140 349 155 134 120 97 70 55 53 50 47 46 47 51 52 53 54 57 64 68 72 77 80 79 81 83 84 85 86 84 84 84 83 83 81 78 77 82 83 85 91 89
96 107 128 136 142 125 129 130 20 109 111 113 104 87 71 63 58 53 50 49 51 54 57 59 62 66 69 76 80 80 79 79 80 79 79 79 78 76 79 79 77 76 74 71 75 78 74 80 82
Height
1520 1519 1519 1518 1521 1532 1531 1521 1514 1511 1507 1506 1505 1505 1506 1508 1512 1515 1510 1511 1516 1521 1526 1530 1535 1538 1542 1544 1547 1549 1552 1554 1557 1559 1561 1563 1564 1566 1567 1568 1570 1571 1572 1572 1573 1574 1574 1574 1574
1518 1518 1519 1519 1529 1540 1533 1518 1514 1511 1508 1506 1506 1506 1506 1506 1506 1506 1507 1512 1517 1522 1527 1531 1536 1539 1542 1545 1548 1550 1553 1555 1558 1560 1562 1564 1565 1567 1568 1570 1571 1572 1573 1574 1574 1575 1575 1575 1576
1516 1517 1519 1521 1532 1536 1526 1516 1513 1508 1506 1505 1505 1506 1507 1506 1506 1506 1508 1513 1518 1523 1528 1532 1536 1540 1543 1546 1549 1551 1554 1556 1559 1561 1563 1565 1566 1568 1570 1571 1572 1573 1574 1575 1575 1576 1576 1576 1577
1515 1516 1518 1525 1529 1523 1518 1513 1511 1508 1505 1503 1504 1507 1508 1508 1507 1508 1510 1514 1519 1524 1528 1533 1537 1541 1544 1547 1550 1552 1555 1557 1560 1562 1564 1566 1568 1569 1570 1572 1573 1574 1575 1576 1576 1577 1577 1577 1578
1513 1514 1521 1529 1525 1517 1513 1512 1511 1509 1506 1504 1504 1506 1508 1508 1508 1510 1512 1516 1520 1524 1529 1533 1537 1541 1545 1548 1550 1553 1556 1558 1561 1563 1565 1567 1568 1570 1571 1572 1574 1575 1576 1576 1577 1577 1578 1578 1579
1511 1512 1527 1531 1522 1513 1511 1510 1510 1508 1506 1504 1504 1506 1507 1508 1509 1511 1514 1517 1521 1524 1529 1534 1538 1542 1545 1548 1551 1554 1556 1559 1561 1564 1566 1567 1569 1570 1572 1573 1574 1575 1576 1577 1578 1578 1578 1579 1580
1510 1515 1521 1521 1517 1512 1508 1508 1509 1508 1505 1504 1503 1506 1507 1508 1510 1513 1515 1518 1522 1526 1530 1534 1538 1542 1546 1549 1552 1555 1557 1560 1562 1564 1566 1568 1569 1571 1572 1573 1574 1576 1577 1578 1578 1579 1579 1579 1580
1508 1513 1516 1517 1515 1510 1506 1507 1507 1507 1505 1504 1503 1504 1505 1507 1510 1513 1516 1519 1523 1526 1530 1534 1537 1541 1545 1549 1552 1555 1558 1560 1562 1564 1566 1568 1569 1571 1572 1574 1575 1576 1577 1578 1579 1579 1579 1580 1581
1508 1517 1519 1514 1511 1506 1504 1505 1505 1505 1503 1503 1502 1503 1504 1507 1509 1512 1515 1518 1522 1526 1529 1533 1537 1541 1545 1548 1552 1555 1557 1560 1562 1564 1566 1568 1570 1571 1572 1574 1575 1576 1577 1578 1579 1579 1580 1580 1581
1507 1517 1513 1505 1502 1501 1502 1503 1503 1503 1501 1500 1501 1501 1503 1505 1507 1509 1512 1515 1519 1523 1528 1532 1536 1540 1544 1547 1551 1554 1557 1559 1561 1564 1566 1568 1569 1571 1572 1573 1575 1576 1577 1578 1579 1579 1579 1580 1581
1504 1508 1504 1501 1500 1500 1501 1501 1501 1501 1499 1497 1498 1498 1500 1503 1506 1509 1511 1513 1517 1522 1526 1530 1535 1539 1543 1546 1549 1552 1555 1558 1561 1563 1565 1567 1569 1570 1571 1573 1574 1575 1577 1578 1578 1579 1579 1580 1581
1504 1501 1500 1498 1498 1498 1498 1498 1498 1496 1494 1493 1494 1495 1497 1500 1503 1506 1509 1513 1517 1520 1524 1529 1533 1537 1541 1545 1548 1551 1554 1557 1559 1562 1564 1566 1568 1569 1571 1572 1574 1575 1576 1577 1578 1578 1579 1580 1580
1502 1499 1497 1496 1496 1495 1495 1495 1494 1491 1489 1490 1490 1492 1494 1496 1501 1506 1510 1513 1516 1519 1523 1527 1531 1535 1539 1543 1546 1549 1552 1555 1558 1561 1563 1565 1566 1568 1570 1572 1573 1574 1575 1575 1576 1577 1578 1579 1580
1496 1495 1494 1493 1492 1491 1491 1490 1491 1485 1485 1486 1486 1488 1491 1495 1500 1504 1508 1511 1514 1518 1522 1526 1530 1534 1537 1541 1544 1548 1551 1554 1557 1559 1561 1563 1565 1567 1569 1571 1572 1573 1574 1574 1575 1576 1577 1578 1579
1495 1495 1493 1489 1487 1486 1488 1490 1486 1481 1483 1484 1485 1487 1491 1495 1499 1501 1505 1509 1512 1516 1520 1524 1528 1532 1535 1539 1543 1546 1549 1552 1555 1557 1559 1561 1563 1565 1567 1569 1570 1571 1572 1573 1574 1575 1576 1577 1578
1494 1496 1497 1487 1484 1484 1489 1492 1480 1480 1481 1482 1484 1487 1491 1494 1497 1500 1504 1508 1511 1515 1518 1522 1526 1529 1533 1536 1540 1544 1547 1550 1553 1555 1557 1559 1561 1563 1564 1566 1568 1569 1570 1571 1572 1573 1574 1575 1576
1500 1502 1497 1490 1483 1483 1486 1488 1479 1479 1480 1481 1484 1486 1489 1492 1496 1499 1502 1506 1509 1513 1516 1519 1523 1526 1530 1534 1538 1541 1545 1548 1550 1552 1554 1556 1558 1560 1562 1563 1565 1566 1568 1569 1569 1571 1572 1573 1574
1503 1499 1497 1493 1485 1484 1486 1485 1479 1478 1480 1480 1482 1484 1487 1489 1492 1495 1500 1504 1508 1511 1515 1518 1521 1524 1528 1531 1535 1538 1541 1545 1547 1549 1551 1554 1555 1557 1559 1560 1562 1563 1565 1566 1567 1568 1569 1570 1571
1495 1496 1498 1492 1484 1484 1484 1484 1480 1477 1478 1479 1480 1482 1484 1486 1490 1494 1498 1502 1505 1509 1511 1513 1516 1520 1524 1527 1530 1534 1536 1540 1543 1546 1548 1550 1552 1554 1556 1557 1558 1560 1561 1563 1565 1565 1566 1567 1569
1495 1497 1496 1489 1482 1482 1483 1485 1481 1479 1479 1479 1479 1481 1483 1485 1489 1492 1496 1499 1502 1504 1507 1510 1513 1516 1520 1523 1527 1531 1534 1536 1540 1542 1544 1546 1548 1550 1552 1553 1554 1556 1557 1559 1561 1562 1563 1564 1566
1494 1495 1493 1490 1485 1482 1483 1489 1487 1484 1483 1482 1482 1482 1483 1485 1487 1490 1492 1495 1498 1500 1503 1506 1509 1512 1516 1520 1524 1527 1531 1533 1535 1538 1540 1541 1543 1545 1547 1549 1551 1552 1553 1555 1557 1559 1560 1561 1563
1496 1487 1487 1488 1493 1498 1491 1504 1495 1490 1487 1487 1487 1486 1487 1487 1488 1489 1491 1493 1495 1497 1500 1502 1505 1508 1511 1516 1520 1523 1526 1528 1530 1532 1535 1537 1539 1541 1543 1545 1547 1548 1550 1552 1554 1556 1557 1559 1560
1487 1482 1484 1486 1491 1497 1495 1503 1503 1493 1492 1492 1491 1491 1490 1490 1490 1491 1492 1493 1494 1496 1498 1500 1502 1505 1508 1513 1516 1520 1522 1525 1527 1530 1532 1534 1536 1538 1540 1541 1543 1545 1547 1549 1551 1553 1554 1555 1557
1479 1483 1487 1494 1499 1506 1497 1503 1506 1498 1496 1495 1495 1495 1494 1493 1493 1493 1493 1494 1495 1496 1497 1498 1500 1503 1506 1510 1514 1517 1520 1521 1524 1527 1529 1531 1534 1535 1537 1538 1540 1542 1544 1546 1548 1550 1552 1553 1554
1481 1495 1509 1508 1515 1511 1499 1502 1506 1499 1497 1498 1499 1498 1498 1497 1496 1495 1495 1495 1496 1496 1497 1499 1500 1503 1505 1508 1511 1515 1518 1520 1522 1525 1526 1528 1531 1533 1534 1536 1538 1540 1542 1544 1546 1548 1549 1551 1552
1482 1490 1508 1513 1514 1512 1503 1506 1505 1501 1501 1501 1501 1501 1500 1499 1498 1498 1498 1498 1498 1499 1499 1500 1501 1503 1504 1507 1510 1513 1515 1518 1521 1523 1525 1527 1529 1531 1532 1534 1537 1539 1541 1543 1545 1546 1548 1549 1551
1482 1487 1488 1502 1504 1512 1510 1506 1505 1503 1504 1504 1505 1504 1504 1504 1503 1502 1502 1502 1502 1501 1502 1502 1502 1503 1505 1507 1510 1512 1514 1516 1519 1522 1523 1526 1528 1531 1533 1534 1537 1539 1541 1543 1545 1546 1548 1549 1550
1476 1483 1495 1504 1513 1516 1513 1511 1509 1506 1507 1508 1508 1509 1509 1508 1507 1507 1506 1505 1505 1505 1504 1504 1504 1505 1507 1509 1511 1513 1514 1515 1518 1521 1523 1526 1529 1531 1533 1535 1537 1540 1542 1544 1546 1548 1549 1549 1550
1481 1486 1495 1505 1507 1517 1522 1520 1507 1505 1506 1509 1511 1513 1513 1512 1511 1511 1510 1510 1509 1509 1508 1508 1508 1509 1510 1511 1512 1513 1515 1517 1520 1522 1525 1528 1531 1533 1535 1538 1539 1542 1544 1546 1547 1548 1549 1549 1549
1480 1486 1492 1502 1509 1512 1517 1520 1507 1506 1508 1511 1513 1515 1516 1515 1515 1515 1515 1514 1513 1512 1512 1512 1512 1513 1513 1514 1515 1515 1517 1520 1522 1525 1528 1531 1534 1536 1538 1541 1542 1544 1545 1547 1548 1549 1549 1548 1548